Location: Guayaquil
(2.1667°S, 79.9000°W)
Time: 14:56:50
(UTC-05:00)

DNEPR OBJECT AB - Visible Passes

Search period start: 18 January 2018 00:00
Search period end: 28 January 2018 00:00
Orbit: 589 x 703 km, 97.6° (Epoch: 17 January)

Date Brightness Start Highest point End Pass type
(mag) Time Alt. Az. Time Alt. Az. Time Alt. Az.
18 Jan ? 19:31:46 10° S 19:35:41 40° WSW 19:39:39 10° NNW visible
19 Jan ? 19:58:07 10° SW 20:00:54 17° WSW 20:03:43 10° WNW visible
21 Jan ? 19:10:44 10° S 19:14:56 83° W 19:19:12 10° NNW visible
22 Jan ? 19:36:22 10° SSW 19:40:09 34° WSW 19:44:02 10° NW visible
23 Jan ? 20:02:59 10° SW 20:05:23 15° WSW 20:07:49 10° WNW visible
25 Jan ? 19:15:12 10° S 19:19:24 69° WSW 19:23:43 10° NNW visible
26 Jan ? 19:40:58 10° SSW 19:44:38 29° WSW 19:48:23 10° NW visible
27 Jan ? 20:07:57 10° SW 20:09:52 13° WSW 20:11:48 10° WNW visible
